sat.trackr.live / text

‹ back to catalog

STARLINK-33915

NORAD 63708 · 2025-087M

PAYLOAD ACTIVE UNKNOWN

§ Identity

Operator
Country
US
Launch date
2025-04-28
Launch site
AFWTR
Launch vehicle
Mass (kg)
RCS (m²)

Purposes: comms

External: N2YO · Heavens-Above · Gunter

§ Orbital elements

Epoch: 2026-05-25T04:52:39.967968Z

Period
94.10 min
Inclination
53.1570°
Eccentricity
0.0002033
Mean motion
15.30216543 rev/d
Perigee alt
473.8 km
Apogee alt
476.6 km
Semi-major
6,853.3 km
B*
5.5367e-4
RAAN
224.1954°
Arg perigee
89.8263°
Mean anomaly
270.2970°
Rev number
6,091

§ Raw data

STARLINK-339151 63708U 25087M   26145.20324037  .00016083  00000+0  55367-3 0  99912 63708  53.1570 224.1954 0002033  89.8263 270.2970 15.30216543 60911

JSON: /api/v1/satellites/63708 · /tle

For live sub-satellite position, see the globe view (requires WebGL).

§ Visibility from observer

Set your observer location to see the next 7 days of passes ≥ 10°. The values pass through the URL so the page stays shareable.

No JS? Fill the form by hand. The geolocation button needs JavaScript.